weather.gov     
National Weather Service

Terminal Aerodrome Forecast
NWS Homepage
This page is being discontinued on March 12, 2014.
The same data is available at this site. Please update your bookmarks.
Thank you, and we apologize for the inconvenience.
Please send an email to SR-SRH.Webmaster@noaa.gov with any concerns.


Current Version
Previous Version:    01  02  03  04  05  06  07  08  09  10  11  12  13  14  15  16  17  18  19  20  21  22  23  24  25  26  27  28  29  30  
   31  32  33  34  35  36  37  38  39  40  41  42  43  44  45  
[Printable]
664
FTUS46 KMFR 012036 AAA
TAFOTH
TAF AMD
KOTH 012036Z 0121/0218 18010KT P6SM -RA BKN015 OVC025
     FM012200 16005KT 6SM BR VCSH BKN025 OVC050
     FM020300 15005KT P6SM OVC025
     FM021000 19011G19KT 5SM -RA BR OVC018=




664
FTUS46 KMFR 012036 AAA
TAFOTH
TAF AMD
KOTH 012036Z 0121/0218 18010KT P6SM -RA BKN015 OVC025
     FM012200 16005KT 6SM BR VCSH BKN025 OVC050
     FM020300 15005KT P6SM OVC025
     FM021000 19011G19KT 5SM -RA BR OVC018=


U.S. Dept. of Commerce
NOAA National Weather Service
1325 East West Highway
Silver Spring, MD 20910
E-mail: w-nws.webmaster@noaa.gov
Page last modified: May 16, 2007
NATIONAL WEATHER SERVICE: for Safety, for Work, for Fun - FOR LIFE